TimeCST,TemperatureF,Dew PointF,Humidity,Sea Level PressureIn,VisibilityMPH,Wind Direction,Wind SpeedMPH,Gust SpeedMPH,PrecipitationIn,Events,Conditions,WindDirDegrees,DateUTC
12:15 AM,12.2,3.2,67,30.22,10.0,North,15.0,20.7,N/A,,Overcast,360,2014-01-02 06:15:00
12:35 AM,12.2,3.2,67,30.22,10.0,North,12.7,-,N/A,,Overcast,350,2014-01-02 06:35:00
12:55 AM,12.2,3.2,67,30.21,10.0,North,15.0,-,N/A,,Overcast,350,2014-01-02 06:55:00
1:15 AM,12.2,3.2,67,30.21,10.0,North,13.8,-,N/A,,Overcast,350,2014-01-02 07:15:00
1:35 AM,10.4,3.2,73,30.21,10.0,North,11.5,18.4,N/A,,Overcast,350,2014-01-02 07:35:00
1:55 AM,10.4,3.2,73,30.21,10.0,North,10.4,16.1,N/A,,Overcast,350,2014-01-02 07:55:00
2:15 AM,10.4,1.4,67,30.22,10.0,North,8.1,-,N/A,,Scattered Clouds,350,2014-01-02 08:15:00
2:35 AM,10.4,1.4,67,30.23,10.0,North,8.1,-,N/A,,Clear,350,2014-01-02 08:35:00
2:55 AM,10.4,1.4,67,30.23,10.0,NNW,10.4,-,N/A,,Mostly Cloudy,340,2014-01-02 08:55:00
3:15 AM,10.4,3.2,73,30.23,10.0,NNW,13.8,-,N/A,,Overcast,340,2014-01-02 09:15:00
3:35 AM,12.2,3.2,67,30.23,10.0,NNW,11.5,-,N/A,,Overcast,330,2014-01-02 09:35:00
3:55 AM,12.2,3.2,67,30.23,10.0,NNW,11.5,-,N/A,,Overcast,330,2014-01-02 09:55:00
4:15 AM,10.4,3.2,73,30.24,10.0,NNW,10.4,-,N/A,,Mostly Cloudy,330,2014-01-02 10:15:00
4:35 AM,10.4,1.4,67,30.24,10.0,NNW,11.5,-,N/A,,Mostly Cloudy,330,2014-01-02 10:35:00
4:55 AM,10.4,1.4,67,30.25,10.0,NNW,12.7,-,N/A,,Overcast,330,2014-01-02 10:55:00
5:15 AM,10.4,1.4,67,30.25,10.0,NNW,13.8,-,N/A,,Overcast,330,2014-01-02 11:15:00
5:35 AM,10.4,1.4,67,30.26,10.0,NNW,12.7,-,N/A,,Overcast,330,2014-01-02 11:35:00
5:55 AM,10.4,1.4,67,30.26,10.0,NNW,12.7,16.1,N/A,,Overcast,330,2014-01-02 11:55:00
6:15 AM,10.4,1.4,67,30.27,10.0,NW,11.5,-,N/A,,Overcast,320,2014-01-02 12:15:00
6:35 AM,10.4,1.4,67,30.28,10.0,NW,11.5,-,N/A,,Overcast,320,2014-01-02 12:35:00
6:55 AM,10.4,1.4,67,30.28,10.0,NW,11.5,-,N/A,,Overcast,320,2014-01-02 12:55:00
7:15 AM,8.6,1.4,73,30.28,10.0,NW,11.5,-,N/A,,Overcast,310,2014-01-02 13:15:00
7:35 AM,8.6,1.4,73,30.29,10.0,NW,12.7,-,N/A,,Overcast,310,2014-01-02 13:35:00
7:55 AM,8.6,-0.4,67,30.29,10.0,NW,11.5,19.6,N/A,,Overcast,320,2014-01-02 13:55:00
8:15 AM,8.6,-0.4,67,30.30,10.0,NW,11.5,-,N/A,,Overcast,320,2014-01-02 14:15:00
8:35 AM,8.6,-0.4,67,30.30,10.0,NW,13.8,-,N/A,,Overcast,320,2014-01-02 14:35:00
8:55 AM,10.4,1.4,67,30.31,10.0,NNW,11.5,-,N/A,,Overcast,330,2014-01-02 14:55:00
9:15 AM,10.4,1.4,67,30.32,10.0,NW,11.5,16.1,N/A,,Overcast,320,2014-01-02 15:15:00
9:35 AM,10.4,1.4,67,30.33,10.0,NNW,11.5,-,N/A,,Overcast,330,2014-01-02 15:35:00
9:55 AM,10.4,1.4,67,30.34,10.0,NW,15.0,-,N/A,,Overcast,310,2014-01-02 15:55:00
10:15 AM,10.4,1.4,67,30.34,5.0,NW,12.7,-,N/A,Snow,Light Snow,320,2014-01-02 16:15:00
10:35 AM,12.2,3.2,67,30.35,1.2,NW,15.0,-,N/A,Snow,Light Snow,310,2014-01-02 16:35:00
10:55 AM,10.4,1.4,67,30.34,5.0,NW,16.1,-,N/A,Snow,Light Snow,310,2014-01-02 16:55:00
11:15 AM,12.2,3.2,67,30.33,7.0,NW,16.1,-,N/A,Snow,Light Snow,310,2014-01-02 17:15:00
11:35 AM,12.2,1.4,62,30.33,10.0,NNW,12.7,-,N/A,,Overcast,330,2014-01-02 17:35:00
11:55 AM,12.2,3.2,67,30.33,10.0,NW,13.8,19.6,N/A,,Overcast,320,2014-01-02 17:55:00
12:15 PM,12.2,3.2,67,30.33,10.0,NW,15.0,20.7,N/A,,Overcast,310,2014-01-02 18:15:00
12:35 PM,12.2,1.4,62,30.33,10.0,NW,11.5,-,N/A,,Overcast,310,2014-01-02 18:35:00
12:55 PM,12.2,1.4,62,30.33,10.0,WNW,15.0,21.9,N/A,,Overcast,300,2014-01-02 18:55:00
1:15 PM,12.2,1.4,62,30.33,10.0,NW,12.7,18.4,N/A,,Mostly Cloudy,320,2014-01-02 19:15:00
1:35 PM,12.2,1.4,62,30.34,10.0,NW,12.7,20.7,N/A,,Scattered Clouds,310,2014-01-02 19:35:00
1:55 PM,12.2,1.4,62,30.34,10.0,NW,15.0,-,N/A,,Clear,310,2014-01-02 19:55:00
2:15 PM,12.2,1.4,62,30.35,10.0,NNW,12.7,18.4,N/A,,Clear,330,2014-01-02 20:15:00
2:35 PM,12.2,1.4,62,30.36,10.0,NNW,12.7,-,N/A,,Clear,330,2014-01-02 20:35:00
2:55 PM,12.2,-0.4,57,30.37,10.0,NW,13.8,18.4,N/A,,Clear,310,2014-01-02 20:55:00
3:15 PM,12.2,-0.4,57,30.37,10.0,NW,11.5,-,N/A,,Clear,310,2014-01-02 21:15:00
3:35 PM,12.2,-0.4,57,30.38,10.0,NNW,10.4,-,N/A,,Clear,330,2014-01-02 21:35:00
3:55 PM,10.4,-0.4,62,30.39,10.0,NW,10.4,-,N/A,,Clear,320,2014-01-02 21:55:00
4:15 PM,10.4,-0.4,62,30.40,10.0,NNW,9.2,-,N/A,,Clear,330,2014-01-02 22:15:00
4:35 PM,8.6,-0.4,67,30.42,10.0,NW,5.8,-,N/A,,Clear,320,2014-01-02 22:35:00
4:55 PM,8.6,-2.2,62,30.42,10.0,NW,6.9,-,N/A,,Clear,310,2014-01-02 22:55:00
5:15 PM,8.6,-2.2,62,30.42,10.0,WNW,6.9,-,N/A,,Clear,300,2014-01-02 23:15:00
5:35 PM,6.8,-2.2,67,30.44,10.0,WNW,5.8,-,N/A,,Clear,300,2014-01-02 23:35:00
5:55 PM,6.8,-2.2,67,30.44,10.0,NW,6.9,-,N/A,,Clear,310,2014-01-02 23:55:00
6:15 PM,5.0,-4.0,66,30.45,10.0,WNW,5.8,-,N/A,,Clear,300,2014-01-03 00:15:00
6:35 PM,3.2,-4.0,72,30.45,10.0,NW,5.8,-,N/A,,Clear,310,2014-01-03 00:35:00
6:55 PM,3.2,-5.8,66,30.46,10.0,NW,5.8,-,N/A,,Clear,310,2014-01-03 00:55:00
7:15 PM,3.2,-5.8,66,30.46,10.0,WNW,6.9,-,N/A,,Clear,300,2014-01-03 01:15:00
7:35 PM,3.2,-5.8,66,30.46,10.0,NW,6.9,-,N/A,,Clear,310,2014-01-03 01:35:00
7:55 PM,3.2,-5.8,66,30.46,10.0,WNW,5.8,-,N/A,,Clear,300,2014-01-03 01:55:00
8:15 PM,1.4,-5.8,72,30.47,10.0,NW,6.9,-,N/A,,Clear,310,2014-01-03 02:15:00
8:35 PM,1.4,-5.8,72,30.46,10.0,NW,6.9,-,N/A,,Clear,320,2014-01-03 02:35:00
8:55 PM,-0.4,-7.6,72,30.46,10.0,NNW,5.8,-,N/A,,Clear,340,2014-01-03 02:55:00
9:15 PM,-0.4,-7.6,72,30.46,10.0,NW,3.5,-,N/A,,Clear,320,2014-01-03 03:15:00
9:35 PM,-0.4,-7.6,72,30.46,10.0,NW,4.6,-,N/A,,Clear,310,2014-01-03 03:35:00
9:55 PM,-0.4,-7.6,72,30.46,10.0,WNW,4.6,-,N/A,,Clear,300,2014-01-03 03:55:00
10:15 PM,-0.4,-7.6,72,30.46,10.0,NW,8.1,-,N/A,,Clear,310,2014-01-03 04:15:00
10:35 PM,-0.4,-7.6,72,30.47,10.0,NW,8.1,-,N/A,,Clear,310,2014-01-03 04:35:00
10:55 PM,-0.4,-7.6,72,30.46,10.0,NNW,4.6,-,N/A,,Clear,340,2014-01-03 04:55:00
11:15 PM,-2.2,-9.4,71,30.45,10.0,Calm,Calm,-,N/A,,Clear,0,2014-01-03 05:15:00
11:35 PM,-2.2,-9.4,71,30.45,10.0,Calm,Calm,-,N/A,,Clear,0,2014-01-03 05:35:00
11:55 PM,-2.2,-9.4,71,30.45,10.0,Calm,Calm,-,N/A,,Clear,0,2014-01-03 05:55:00